x

Cape Elizabeth- 45nm Nw Of Aberdeen, Wa (46041) Wave Buoy

10:50 - Sun 3rd May 2015 All times are PDT. -7 hours from GMT.

  • Sig Wave height 7.2ft
  • Swell Direction
  • Peak Period 11s
  • Average Period 7s
  • Wind
    7mph, 9mph gusts
  • Sea Temp 53°f
  • Ar Temp 51°f
  • Sea Pressure 1016.8mb
  • Cape Elizabeth- 45nm Nw Of Aberdeen, Wa
  • Cape Elizabeth- 45nm Nw Of Aberdeen, Wa

More Historic Weather Station data

Upgrade to MSW Pro to gain access to the past 30 days of data for over 8000 Wavebouys and Weather Stations around the globe.

Join Pro

Comparision Forecast

View Surf forecast
   
Dom 05/03 10:50 7ft 11s 7s 7 9 mph 1016.8mb 53f 51f
9:50 6ft 11s 7s  -  2 mph 1016.7mb 53f 51f
8:50 7ft 11s 7s 4 7 mph 1016.6mb 52f 51f
7:50 7ft 11s 7s 9 13 mph 1016.8mb 52f 51f
6:50 7ft 11s 7s 11 13 mph 1016.5mb 52f 51f
5:50 6ft 11s 7s 11 16 mph 1016.2mb 52f 51f
4:50 6.5ft 11s 7s 13 16 mph 1016.2mb 52f 51f
3:50 7ft 11s 7s 16 18 mph 1016.1mb 53f 51f
2:50 6ft 11s 6s 16 18 mph 1016.3mb 53f 51f
1:50 6.5ft 11s 6s 16 18 mph 1016.5mb 53f 51f
12:50 8ft 11s 7s 18 20 mph 1016.5mb 53f 51f
Sáb 05/02 11:50 8ft 12s 7s 18 20 mph 1016.6mb 53f 51f
10:50 8ft 12s 7s 20 22 mph 1016.6mb 53f 51f
9:50 7.5ft 12s 7s 20 25 mph 1016.8mb 53f 51f
8:50 8.5ft 11s 7s 20 25 mph 1016.6mb 53f 52f
7:50 8.5ft 11s 7s 18 22 mph 1016.9mb 53f 52f
6:50 8ft 11s 7s 20 22 mph 1017.2mb 53f 52f
5:50 8.5ft 11s 7s 20 22 mph 1017.7mb 53f 52f
4:50 7.5ft 11s 7s 18 22 mph 1017.8mb 53f 51f
3:50 7.5ft 11s 7s 16 20 mph 1018.4mb 52f 51f
2:50 7.5ft 11s 7s 16 18 mph 1018.8mb 52f 51f
1:50 7ft 10s 7s 16 18 mph 1019mb 52f 51f
12:50 6.5ft 8s 7s 13 16 mph 1019.2mb 52f 51f
11:50 7ft 11s 7s 13 16 mph 1019.5mb 52f 51f
10:50 8ft 8s 7s 11 13 mph 1019.4mb 52f 51f
9:50 7ft 11s 7s 13 16 mph 1019.4mb 52f 51f
8:50 8ft 11s 7s 13 16 mph 1019.1mb 52f 51f
7:50 8.5ft 9s 7s 16 18 mph 1019mb 52f 51f
6:50 8ft 8s 7s 16 18 mph 1018.8mb 52f 51f
5:50 8ft 9s 7s 16 18 mph 1018.5mb 52f 51f
4:50 7.5ft 9s 6s 16 20 mph 1018.3mb 53f 51f
3:50 7.5ft 10s 6s 18 20 mph 1018.2mb 53f 51f
2:50 7.5ft 9s 6s 18 20 mph 1018.4mb 53f 51f
1:50 7.5ft 11s 6s 18 22 mph 1018.5mb 53f 51f
12:50 7ft 10s 6s 20 25 mph 1018.6mb 53f 51f
Sex 05/01 11:50 7ft 10s 6s 22 27 mph 1018.7mb 53f 50f
10:50 7ft 11s 6s 25 29 mph 1018.8mb 54f 51f
9:50 6.5ft 11s 6s 22 27 mph 1018.9mb 54f 51f
8:50 6ft 11s 5s 22 25 mph 1018.6mb 53f 51f
7:50 6.5ft 11s 6s 25 29 mph 1018.4mb 54f 52f
6:50 6ft 11s 6s 22 25 mph 1018.7mb 53f 52f
5:50 6ft 9s 7s 18 20 mph 1019.1mb 53f 52f
4:50 6ft 11s 7s 16 20 mph 1019.2mb 54f 53f
3:50 6.5ft 11s 7s 16 20 mph 1019.4mb 54f 53f
1:50 7ft 10s 7s 16 20 mph 1019.6mb 53f 52f
12:50 6.5ft 10s 7s 13 16 mph 1019.6mb 53f 52f
11:50 7ft 10s 8s 11 13 mph 1019.5mb 53f 52f
10:50 7ft 9s 8s 13 16 mph 1019.5mb 53f 52f
9:50 7ft 10s 8s 11 13 mph 1019.5mb 53f 52f
8:50 6ft 9s 8s 11 16 mph 1019.5mb 53f 52f
7:50 6ft 10s 8s 7 9 mph 1019.5mb 53f 51f
6:50 6ft 10s 8s 7 9 mph 1019.2mb 53f 51f
5:50 6.5ft 10s 8s 9 11 mph 1019mb 53f 51f
4:50 6ft 10s 8s 9
mph
1019.3mb 54f 52f
3:50 6ft 10s 8s 9 11 mph 1019.5mb 53f 52f
2:50 5ft 10s 7s 11 13 mph 1019.7mb 53f 52f
1:50 6ft 10s 7s 13
mph
1020.1mb 53f 52f
12:50 5ft 10s 7s 2 4 mph 1020.5mb 53f 52f
Qui 04/30 11:50 6ft 10s 7s 2 4 mph 1020.9mb 53f 53f
10:50 6ft 10s 8s 4 7 mph 1021.4mb 53f 53f
9:50 6ft 10s 7s 7 9 mph 1021.8mb 54f 53f
8:50 7ft 10s 8s 7 9 mph 1021.5mb 54f 53f
7:50 8ft 10s 8s 7 9 mph 1021.6mb 54f 53f
6:50 7ft 10s 8s 9 11 mph 1022.7mb 54f 53f
5:50 6.5ft 9s 8s 9
mph
1023.5mb 54f 53f
4:50 5ft 10s 7s 7 9 mph 1024.2mb 54f 53f
3:50 6ft 10s 8s 4
mph
1024.9mb 54f 53f
2:50 5.5ft 10s 7s 4 7 mph 1025.6mb 54f 53f
1:50 5ft 11s 7s 4 7 mph 1026.1mb 54f 52f
12:50 6ft 11s 8s 7
mph
1026.3mb 54f 52f
11:50 5ft 10s 7s 7
mph
1026.5mb 53f 52f
10:50 5.5ft 11s 7s 7 9 mph 1026.4mb 53f 52f
9:50 6ft 11s 7s 7 9 mph 1026.4mb 53f 52f
8:50 7ft 11s 7s 7 9 mph 1026.7mb 53f 52f
7:50 8ft 11s 7s 7
mph
1026.6mb 53f 52f
6:50 7.5ft 9s 7s 4 7 mph 1026.4mb 53f 51f
5:50 8ft 11s 8s 7 9 mph 1026.4mb 53f 51f
4:50 8ft 11s 8s 4 7 mph 1026.7mb 53f 52f
3:50 7.5ft 11s 8s 4 7 mph 1026.6mb 53f 51f
2:50 8.5ft 11s 8s 4 7 mph 1026.5mb 53f 51f
1:50 9ft 11s 9s 9 11 mph 1026.7mb 53f 51f
12:50 7.5ft 11s 8s 4 7 mph 1026.5mb 53f 51f
Qua 04/29 11:50 8ft 11s 8s 4 7 mph 1026.2mb 53f 51f
10:50 7.5ft 11s 8s 7 11 mph 1026.2mb 52f 51f
9:50 7ft 11s 8s 9 11 mph 1026mb 52f 52f
8:50 7.5ft 12s 8s 11 16 mph 1025.5mb 52f 52f
7:50 7ft 11s 8s 11 13 mph 1025.2mb 52f 52f